Regional Weather Roundup
Issued by NWS

Home | Current Version | Previous Version | Graphics & Text | Print | Product List | Glossary On
Versions: 1 2 3 4 5 6 7 8 9 10 11 12 13 14 15 16 17 18 19 20 21 22 23 24 25 26 27 28 29 30 31 32 33 34 35 36 37 38 39 40 41 42 43 44 45 46 47 48 49 50
000
ASUS43 KFSD 281910
RWRSD

WEATHER ROUNDUP FOR SOUTH DAKOTA
NATIONAL WEATHER SERVICE SIOUX FALLS SD
200 PM CDT FRI APR 28 2017

NOTE: "FAIR" INDICATES FEW OR NO CLOUDS BELOW 12,000 FEET WITH NO
SIGNIFICANT WEATHER AND/OR OBSTRUCTIONS TO VISIBILITY.


SDZ001>005-009-010-012>017-282000-
NORTHWEST AND NORTH CENTRAL SOUTH DAKOTA

CITY           SKY/WX    TMP DP  RH WIND       PRES   REMARKS
BUFFALO          N/A     50  25  37 E15G21    29.94R
FAITH            N/A     48  28  46 E13       29.99R
MOBRIDGE       SUNNY     54  15  21 NE9G22    29.98S
$$

SDZ012>016-024>037-041>051-057-063-072>074-282000-
SOUTHWEST AND SOUTH CENTRAL SOUTH DAKOTA

CITY           SKY/WX    TMP DP  RH WIND       PRES   REMARKS
RAPID CTY ARPT CLOUDY    45  27  49 E12G20    29.97R
PIERRE         CLOUDY    50  25  37 E16G24    29.96F
CUSTER         CLOUDY    30  23  75 NE16G26   29.89R WCI  19
ELLSWORTH AFB  CLOUDY    44  26  49 E12       29.96R
PHILIP         CLOUDY    47  30  51 NE15      29.98R
PINE RIDGE     CLOUDY    42  31  64 E15G22    29.92R
SPEARFISH      FAIR      41  28  60 E13       29.98R
WINNER         FAIR      49  26  41 NE15      29.95R
$$

SDZ004>011-016>023-039-040-282000-
NORTHEAST SOUTH DAKOTA

CITY           SKY/WX    TMP DP  RH WIND       PRES   REMARKS
ABERDEEN       SUNNY     52  18  26 N20G25    30.00S
WATERTOWN      CLOUDY    47  23  38 NE20      29.96R
BROOKINGS      MOSUNNY   45  28  51 NE13G22   29.95R
SISSETON         N/A     51  24  34 NE15G24   29.98S
$$

SDZ017-020-022-023-036>040-048>070-282000-
SOUTHEAST SOUTH DAKOTA

CITY           SKY/WX    TMP DP  RH WIND       PRES   REMARKS
SIOUX FALLS    CLOUDY    46  32  58 NE20G26   29.93S
HURON          MOSUNNY   51  28  41 NE16G23   29.96S
CHAMBERLAIN    CLOUDY    51  27  39 NE14      29.95S
MITCHELL       PTSUNNY   49  26  41 NE13G22   29.95S
YANKTON        CLOUDY    43  30  61 NE12      29.93R
$$

ABBREVIATIONS USED IN REMARKS
   TC - TEMPERATURE IN CELSIUS
  WCI - WIND CHILL INDEX
   HX - HEAT INDEX
  VSB - VISIBILITY





USA.gov is the U.S. government's official web portal to all federal, state and local government web resources and services.